When you browse on this site, cookies collect data to enhance your experience and personalize the content and advertising you see.
Visit our Privacy Policy to learn more. By continuing to use the site, you agree to this use of cookies and data.
  • In Hungary
  • List of Countries
  • For 7 days
  • Water Temperature
  • Satellite Maps
  • Weather Map
  • News
  • Weather Widgets
  • user-avatar
    Login

    Hourly Weather Fiugaty

    Today, 17 January, Thursday

    Time Temperature Precipitation Wind Pressure Humidity
    00:00 +1°C° 0 mm 6 mps 736 mmHg 95%
    01:00 -1°C° 0 mm 6 mps 736 mmHg 95%
    02:00 -1°C° 0.1 mm 6 mps 735 mmHg 94%
    03:00 -1°C° 0.1 mm 6 mps 735 mmHg 93%
    04:00 -1°C° 0.1 mm 6 mps 734 mmHg 92%
    05:00 -1°C° 0 mm 6 mps 734 mmHg 91%
    06:00 -2°C° 0 mm 7 mps 733 mmHg 90%
    07:00 -2°C° 0 mm 7 mps 733 mmHg 89%
    08:00 -2°C° 0.1 mm 7 mps 733 mmHg 88%
    09:00 -1°C° 0.1 mm 7 mps 733 mmHg 87%
    10:00 -1°C° 0.1 mm 7 mps 733 mmHg 86%
    11:00 -1°C° 0.1 mm 7 mps 733 mmHg 87%
    12:00 -1°C° 0.1 mm 7 mps 733 mmHg 87%
    13:00 +1°C° 0.1 mm 6 mps 733 mmHg 88%
    14:00 -1°C° 0 mm 6 mps 733 mmHg 89%
    15:00 0°C° 0 mm 5 mps 734 mmHg 89%
    16:00 0°C° 0 mm 5 mps 734 mmHg 90%
    17:00 0°C° 0 mm 5 mps 734 mmHg 89%
    18:00 0°C° 0 mm 5 mps 734 mmHg 88%
    19:00 -1°C° 0 mm 5 mps 735 mmHg 87%
    20:00 -1°C° 0 mm 5 mps 735 mmHg 87%
    21:00 -1°C° 0 mm 4 mps 735 mmHg 88%
    22:00 -1°C° 0 mm 4 mps 735 mmHg 89%
    23:00 -1°C° 0 mm 4 mps 735 mmHg 91%

    Tomorrow, 18 January, Friday

    Time Temperature Precipitation Wind Pressure Humidity
    00:00 -2°C° 0 mm 4 mps 735 mmHg 93%
    01:00 -2°C° 0 mm 4 mps 735 mmHg 95%
    02:00 -1°C° 0.3 mm 4 mps 734 mmHg 93%
    03:00 -1°C° 0.3 mm 5 mps 734 mmHg 92%
    04:00 -1°C° 0.3 mm 6 mps 734 mmHg 91%
    05:00 -1°C° 0.1 mm 5 mps 734 mmHg 90%
    06:00 -1°C° 0.1 mm 5 mps 734 mmHg 88%
    07:00 -2°C° 0.1 mm 5 mps 735 mmHg 86%
    08:00 -2°C° 0 mm 5 mps 736 mmHg 86%
    09:00 -2°C° 0 mm 5 mps 736 mmHg 86%
    10:00 -4°C° 0 mm 5 mps 737 mmHg 85%
    11:00 -4°C° 0.2 mm 5 mps 738 mmHg 84%
    12:00 -5°C° 0.2 mm 5 mps 739 mmHg 84%
    13:00 -5°C° 0.2 mm 5 mps 740 mmHg 83%
    14:00 -5°C° 0.1 mm 5 mps 741 mmHg 82%
    15:00 -4°C° 0.1 mm 4 mps 742 mmHg 81%
    16:00 -4°C° 0.1 mm 4 mps 743 mmHg 80%
    17:00 -4°C° 0 mm 4 mps 744 mmHg 81%
    18:00 -4°C° 0 mm 4 mps 745 mmHg 83%
    19:00 -4°C° 0 mm 4 mps 746 mmHg 84%
    20:00 -4°C° 0 mm 4 mps 746 mmHg 83%
    21:00 -5°C° 0 mm 4 mps 747 mmHg 82%
    22:00 -5°C° 0 mm 4 mps 747 mmHg 82%
    23:00 -5°C° 0 mm 4 mps 747 mmHg 81%

    Day after tomorrow, 19 January, Saturday

    Time Temperature Precipitation Wind Pressure Humidity
    00:00 -5°C° 0 mm 4 mps 748 mmHg 80%
    01:00 -5°C° 0 mm 4 mps 748 mmHg 79%
    02:00 -5°C° 0 mm 4 mps 748 mmHg 80%
    03:00 -5°C° 0 mm 3 mps 748 mmHg 82%
    04:00 -6°C° 0 mm 3 mps 748 mmHg 84%
    05:00 -6°C° 0 mm 3 mps 749 mmHg 86%
    06:00 -6°C° 0 mm 3 mps 749 mmHg 89%
    07:00 -5°C° 0 mm 3 mps 749 mmHg 91%
    08:00 -5°C° 0 mm 3 mps 750 mmHg 90%
    09:00 -5°C° 0 mm 4 mps 750 mmHg 89%
    10:00 -4°C° 0 mm 4 mps 750 mmHg 88%
    11:00 -4°C° 0 mm 4 mps 750 mmHg 86%
    12:00 -3°C° 0 mm 4 mps 750 mmHg 83%
    13:00 -3°C° 0 mm 4 mps 750 mmHg 81%
    14:00 -3°C° 0 mm 4 mps 750 mmHg 83%
    15:00 -4°C° 0 mm 3 mps 750 mmHg 86%
    16:00 -4°C° 0 mm 3 mps 750 mmHg 88%
    17:00 -4°C° 0 mm 3 mps 750 mmHg 88%
    18:00 -5°C° 0 mm 3 mps 750 mmHg 89%
    19:00 -5°C° 0 mm 3 mps 750 mmHg 90%
    20:00 -5°C° 0 mm 3 mps 750 mmHg 91%
    21:00 -4°C° 0 mm 2 mps 750 mmHg 92%
    22:00 -4°C° 0 mm 2 mps 751 mmHg 92%
    23:00 -5°C° 0 mm 2 mps 751 mmHg 93%

    20 January, Sunday

    Time Temperature Precipitation Wind Pressure Humidity
    00:00 -5°C° 0 mm 2 mps 751 mmHg 93%
    01:00 -5°C° 0 mm 2 mps 750 mmHg 93%
    02:00 -5°C° 0 mm 2 mps 750 mmHg 93%
    03:00 -5°C° 0 mm 2 mps 750 mmHg 94%
    04:00 -5°C° 0 mm 2 mps 750 mmHg 94%
    05:00 -5°C° 0 mm 2 mps 750 mmHg 93%
    06:00 -5°C° 0 mm 2 mps 750 mmHg 93%
    07:00 -6°C° 0 mm 2 mps 750 mmHg 93%
    08:00 -5°C° 0 mm 2 mps 750 mmHg 92%
    09:00 -5°C° 0 mm 2 mps 750 mmHg 90%
    10:00 -4°C° 0 mm 2 mps 750 mmHg 89%
    11:00 -4°C° 0 mm 2 mps 750 mmHg 88%
    12:00 -3°C° 0 mm 2 mps 750 mmHg 86%
    13:00 -3°C° 0 mm 2 mps 750 mmHg 85%
    14:00 -3°C° 0 mm 2 mps 749 mmHg 87%
    15:00 -4°C° 0 mm 2 mps 749 mmHg 89%
    16:00 -4°C° 0 mm 2 mps 749 mmHg 91%
    17:00 -4°C° 0 mm 2 mps 749 mmHg 91%
    18:00 -6°C° 0 mm 3 mps 749 mmHg 91%
    19:00 -6°C° 0 mm 3 mps 749 mmHg 91%
    20:00 -5°C° 0 mm 3 mps 749 mmHg 90%
    21:00 -5°C° 0 mm 4 mps 749 mmHg 90%
    22:00 -5°C° 0 mm 4 mps 749 mmHg 90%
    23:00 -4°C° 0.1 mm 4 mps 750 mmHg 92%

    21 January, Monday

    Time Temperature Precipitation Wind Pressure Humidity
    00:00 -4°C° 0.1 mm 3 mps 750 mmHg 93%
    01:00 -4°C° 0.1 mm 3 mps 750 mmHg 95%
    02:00 -4°C° 0.1 mm 3 mps 750 mmHg 95%
    03:00 -3°C° 0.1 mm 2 mps 750 mmHg 95%
    04:00 -3°C° 0.1 mm 2 mps 750 mmHg 95%
    05:00 -2°C° 0 mm 1 mps 751 mmHg 94%
    06:00 -2°C° 0 mm 1 mps 751 mmHg 93%
    07:00 -3°C° 0 mm 1 mps 751 mmHg 92%
    08:00 -3°C° 0 mm 0 mps 751 mmHg 90%
    09:00 -3°C° 0 mm 0 mps 752 mmHg 88%
    10:00 -2°C° 0 mm 0 mps 752 mmHg 86%
    11:00 -1°C° 0 mm 1 mps 752 mmHg 84%
    12:00 0°C° 0 mm 1 mps 752 mmHg 83%
    13:00 0°C° 0 mm 1 mps 752 mmHg 81%
    14:00 0°C° 0 mm 1 mps 752 mmHg 83%
    15:00 -1°C° 0 mm 1 mps 752 mmHg 86%
    16:00 -1°C° 0 mm 1 mps 752 mmHg 88%
    17:00 -4°C° 0 mm 2 mps 752 mmHg 89%
    18:00 -4°C° 0 mm 2 mps 752 mmHg 91%
    19:00 -4°C° 0 mm 2 mps 752 mmHg 92%
    20:00 -4°C° 0 mm 2 mps 752 mmHg 93%
    21:00 -4°C° 0 mm 2 mps 751 mmHg 93%
    22:00 -4°C° 0 mm 2 mps 751 mmHg 94%
    23:00 -5°C° 0 mm 2 mps 751 mmHg 94%

    22 January, Tuesday

    Time Temperature Precipitation Wind Pressure Humidity
    00:00 -5°C° 0 mm 2 mps 751 mmHg 95%
    01:00 -5°C° 0 mm 2 mps 751 mmHg 95%
    02:00 -5°C° 0 mm 2 mps 751 mmHg 94%
    03:00 -5°C° 0 mm 2 mps 750 mmHg 94%
    04:00 -5°C° 0 mm 2 mps 750 mmHg 93%
    05:00 -5°C° 0 mm 2 mps 750 mmHg 93%
    06:00 -5°C° 0 mm 2 mps 749 mmHg 93%
    07:00 -5°C° 0 mm 2 mps 749 mmHg 93%
    08:00 -6°C° 0 mm 3 mps 749 mmHg 91%
    09:00 -5°C° 0 mm 3 mps 749 mmHg 89%
    10:00 -5°C° 0 mm 3 mps 749 mmHg 87%
    11:00 -4°C° 0 mm 3 mps 748 mmHg 84%
    12:00 -4°C° 0 mm 3 mps 748 mmHg 82%
    13:00 -4°C° 0 mm 3 mps 748 mmHg 80%
    14:00 -4°C° 0 mm 3 mps 748 mmHg 82%
    15:00 -5°C° 0 mm 3 mps 747 mmHg 85%
    16:00 -5°C° 0 mm 3 mps 747 mmHg 88%
    17:00 -6°C° 0 mm 3 mps 747 mmHg 89%
    18:00 -6°C° 0 mm 3 mps 747 mmHg 90%
    19:00 -6°C° 0 mm 3 mps 747 mmHg 91%
    20:00 -7°C° 0 mm 3 mps 747 mmHg 91%
    21:00 -7°C° 0 mm 3 mps 747 mmHg 91%
    22:00 -7°C° 0 mm 3 mps 747 mmHg 90%
    23:00 -7°C° 0 mm 3 mps 747 mmHg 90%
    Show more